Beckley, WV

5:12 AM EDT on September 22, 2019 (GMT -0400)
Raleigh County Memorial

Weather History for KBKW - July, 2019

Change the Weather History Date:

Thursday, July 25, 2019

  Actual Average Record
Temperature  
Mean Temperature 66 °F 70 °F  
Max Temperature 78 °F 80 °F 93 °F (1934)
Min Temperature 53 °F 61 °F 46 °F (1954)
Degree Days  
Heating Degree Days 0 0  
Month to date heating degree days 0  
Since 1 June heating degree days 39  
Since 1 July heating degree days 0  
Cooling Degree Days 0 6  
Month to date cooling degree days 150  
Year to date cooling degree days 302  
Since 1 June cooling degree days 261  
Growing Degree Days 16 (Base 50)    
Moisture  
Dew Point 53 °F    
Average Humidity 67    
Maximum Humidity 93    
Minimum Humidity 30    
Precipitation  
Precipitation 0.00 in 0.17 in 1.49 in (1933)
Month to date precipitation 4.02  
Year to date precipitation 25.18  
Sea Level Pressure  
Sea Level Pressure 30.17 in    
Wind  
Wind Speed 1 mph (NNE)    
Max Wind Speed 7 mph    
Max Gust Speed -    
Visibility 10 miles    
Events      
T = Trace of Precipitation, MM = Missing Value Source: NWS Daily Summary

Daily Weather History Graph

Daily Weather History Graph

Search for Another Location

Airport or City:

Astronomy

Jul. 25, 2019 Rise Set
Actual Time 6:21 AM EDT 8:39 PM EDT
Civil Twilight 5:52 AM EDT 9:09 PM EDT
Nautical Twilight 5:15 AM EDT 9:45 PM EDT
Astronomical Twilight 4:35 AM EDT 10:25 PM EDT
Moon 1:02 AM EDT (7/25) 2:22 PM EDT (7/25)
Length of Visible Light 15h 16m
Length of Day
14h 17m
Last Quarter, 44% of the Moon is Illuminated
Jul 25
Last Quarter
Jul 31
New
Aug 7
First Quarter
Aug 15
Full
Aug 23
Last Quarter

Hourly Weather History & Observations

Time (EDT) Temp. Dew Point Humidity Pressure Visibility Wind Dir Wind Speed Gust Speed Precip Events Conditions
12:51 AM 57.0 °F 53.1 °F 87% 30.12 in 10.0 mi Calm Calm - N/A   Clear
1:51 AM 55.9 °F 53.1 °F 90% 30.12 in 10.0 mi Calm Calm - N/A   Clear
2:51 AM 55.9 °F 53.1 °F 90% 30.12 in 10.0 mi Calm Calm - N/A   Clear
3:51 AM 54.0 °F 52.0 °F 93% 30.13 in 8.0 mi Calm Calm - N/A   Clear
4:51 AM 54.0 °F 52.0 °F 93% 30.13 in 9.0 mi Calm Calm - N/A   Clear
5:51 AM 54.0 °F 51.1 °F 90% 30.13 in 10.0 mi Calm Calm - N/A   Clear
6:51 AM 53.1 °F 51.1 °F 93% 30.16 in 9.0 mi Calm Calm - N/A   Clear
7:51 AM 57.0 °F 53.1 °F 87% 30.17 in 10.0 mi Calm Calm - N/A   Clear
8:51 AM 62.1 °F 55.0 °F 78% 30.19 in 10.0 mi Calm Calm - N/A   Clear
9:51 AM 68.0 °F 57.0 °F 68% 30.19 in 10.0 mi West 3.5 mph - N/A   Clear
10:51 AM 70.0 °F 55.0 °F 59% 30.20 in 10.0 mi Variable 6.9 mph - N/A   Clear
11:51 AM 72.0 °F 52.0 °F 49% 30.20 in 10.0 mi North 4.6 mph - N/A   Clear
12:51 PM 73.0 °F 52.0 °F 48% 30.19 in 10.0 mi Variable 3.5 mph - N/A   Partly Cloudy
1:51 PM 75.0 °F 50.0 °F 41% 30.19 in 10.0 mi Variable 4.6 mph - N/A   Clear
2:51 PM 75.9 °F 51.1 °F 42% 30.17 in 10.0 mi NNE 6.9 mph - N/A   Clear
3:51 PM 75.9 °F 52.0 °F 43% 30.17 in 10.0 mi South 3.5 mph - N/A   Clear
4:51 PM 77.0 °F 52.0 °F 42% 30.16 in 10.0 mi North 5.8 mph - N/A   Partly Cloudy
5:51 PM 77.0 °F 53.1 °F 43% 30.16 in 10.0 mi North 4.6 mph - N/A   Mostly Cloudy
6:51 PM 73.9 °F 53.1 °F 48% 30.17 in 10.0 mi ENE 3.5 mph - N/A   Overcast
7:51 PM 73.0 °F 54.0 °F 51% 30.18 in 10.0 mi NE 4.6 mph - N/A   Clear
8:51 PM 69.1 °F 55.9 °F 63% 30.19 in 10.0 mi NE 3.5 mph - N/A   Clear
9:51 PM 64.9 °F 57.0 °F 75% 30.20 in 10.0 mi Calm Calm - N/A   Clear
10:51 PM 64.9 °F 55.9 °F 73% 30.22 in 10.0 mi Calm Calm - N/A   Clear
11:51 PM 63.0 °F 55.9 °F 78% 30.22 in 10.0 mi Calm Calm - N/A   Clear